Location: Alfortville
(48.8058°N, 2.4204°E)
Time: 01:47:53
(UTC+00:00)

Envisat - Pass Details

Date: 26 November 2022
Orbit: 763 x 765 km, 98.2° (Epoch: 28 January)

Event Time Altitude Azimuth Distance (km) Brightness Sun altitude
Rises 05:19:58 0° 5° (N) 3,246 6.2 -18.4°
Reaches altitude 10° 05:22:33 10° 355° (N) 2,315 5.3 -18.0°
Enters shadow 05:26:36 28° 302° (WNW) 1,409 3.8 -17.3°
